{"data":{"norad_id":62844,"epoch":"2026-05-25T00:48:59.067072Z","epoch_age_seconds":75184,"freshness":"FRESH","line1":"1 62844U 25019R   26145.03401698  .00021795  00000+0  79797-3 0  9995","line2":"2 62844  43.0050  18.0995 0001442 264.4343  95.6344 15.27630587 73923","mean_motion":15.27630587,"eccentricity":0.0001442,"inclination_deg":43.005,"raan_deg":18.0995,"arg_perigee_deg":264.4343,"mean_anomaly_deg":95.6344,"bstar":0.00079797,"rev_number":7392,"period_min":94.263627100313,"perigee_km":481.90826335029,"apogee_km":483.88698573601,"semimajor_km":6861.0346245431,"source":"CELESTRAK","updated_at":"2026-05-25T13:38:19.781259Z"}}